User: anonymous   Login
Location: Caltech
(34.1382°N, 118.1253°W)
Time: 02:23:47
(UTC-07:00)
Language:

Cosmos 1937 Rocket - Orbit

View from above orbital plane
View from above orbital plane
View from above satellite
View from above satellite

Ground track
Ground track

The orbit data is extracted from the following two-line orbital elements,

1 19039U 88029B   15087.88185942  .00000359  00000-0  12639-3 0  9996
2 19039 074.0504 353.2764 0023512 005.0775 062.3933 14.38179875414212
Epoch (UTC): 28 March 2015 21:09:52
Eccentricity: 0.0023512
inclination: 74.0504°
perigee height: 748 km
apogee height: 781 km
right ascension of ascending node: 353.2764°
argument of perigee: 5.0775°
revolutions per day: 14.38179875
mean anomaly at epoch: 62.3933°
orbit number at epoch: 41421

The dashed part of the orbit path shows where the satellite is in the earth's shadow,  

DLR